www.pogodaiklimat.ru

Погода и климат >> Архив погоды >> Боливия >> San Ignacio De Velasco


ПОГОДА в San Ignacio De Velasco

  • Прогноз погоды в San Ignacio De Velasco
  • Монитор погоды в San Ignacio De Velasco
  • Климат города

АРХИВ ПОГОДЫ в San Ignacio De Velasco

Время (UTC), дата Ветер
(напр.,м/с)
 
Видим.   Явления Облачность Т
(С)
Тd
(С)
f
(%)
Тe
(С)
Тes
(С)
Комфортность P
(гПа)
Po
(гПа)
Тmin
(С)
Tmax
(С)
R
(мм)
R24
(мм)
S
(см)
12 13.11 штиль 0 30 км ясно +23.3 +19.5 79 +30 +38 очень
душно
1011.6 964.8 +16.0
15 13.11 С 3 30 км ясно +30.0 +20.1 55 +36 +53 опасность
солнечного
удара
1011.9 964.7
18 13.11 штиль 0 30 км ясно +32.6 +19.8 47 +39 +62 опасность
солнечного
удара
1009.5 962.0
21 13.11 штиль 0 30 км ясно +32.6 +19.0 45 +38 +41 очень
душно
1006.0 959.3 +34.0
12 14.11 штиль 0 30 км ясно +24.0 +20.4 80 +30 +38 очень
душно
1010.4 963.7 +14.3
15 14.11 С 3 30 км ясно +32.2 +22.5 57 +42 +59 опасность
перегрева
1010.5 963.7
18 14.11 штиль 0 30 км ясно +34.4 +22.3 49 +43 +67 опасность
перегрева
1006.3 959.8
21 14.11 штиль 0 30 км ясно +34.2 +22.5 51 +44 +47 опасность
перегрева
1004.5 958.0 +35.2
12 15.11 СЗ 3 30 км 5/5 500 м
[Cu Sc]
+25.0 +22.3 85 +33 +35 очень
душно
1009.6 962.9 +22.8
15 15.11 С 3 30 км ясно +31.2 +22.0 58 +40 +58 опасность
солнечного
удара
1010.2 963.5
18 15.11 С 4 30 км 5/5 600 м
[Cu med, cong]
+32.6 +23.8 60 +44 +50 опасность
перегрева
1006.3 959.8
21 15.11 С 3 30 км 5/5 600 м
[Cu med, cong]
+31.5 +24.1 65 +43 +45 опасность
перегрева
1005.0 958.5 +33.5
12 16.11 СЗ 5 30 км 9/9 360 м
[Sc]
+25.9 +23.2 85 +35 +35 очень
душно
1010.4 963.7 +22.8
15 16.11 С 4 30 км 6/6 500 м
[Sc]
+30.6 +23.8 67 +42 +47 опасность
перегрева
1012.2 965.5
18 16.11 СЗ 3 30 км 6/6 500 м
[Cb cap]
+31.0 +22.8 62 +41 +47 опасность
перегрева
1007.4 960.8
21 16.11 штиль 0 30 км в посл. час гроза 6/5 500 м
[Cb cap Ac trans]
+28.0 +24.0 79 +39 +40 очень
душно
1005.0 958.5 +32.0
12 17.11 С 3 30 км 4/4 450 м
[Sc As trans]
+25.2 +22.8 87 +33 +37 очень
душно
1008.0 961.5 +22.6
15 17.11 СЗ 5 30 км 6/6 500 м
[Cu med, cong]
+29.6 +22.6 66 +39 +43 очень
душно
1008.0 961.5
18 17.11 ЮЗ 5 30 км 8/5 500 м
[Cu med, cong Ci]
+28.0 +22.4 72 +37 +41 очень
душно
1005.1 959.3
21 17.11 СЗ 4 30 км 6/4 500 м
[Cu med, cong Ci]
+28.5 +22.3 69 +37 +38 очень
душно
1003.5 957.0 +30.2
12 18.11 СЗ 3 30 км 6/6 450 м
[Sc]
+25.0 +21.6 81 +32 +34 очень
душно
1008.0 961.5 +22.0
15 18.11 СЗ 8 30 км 8/8 500 м
[Cu Sc]
+29.0 +22.1 66 +37 +38 очень
душно
1008.3 961.8
18 18.11 СЗ 8 30 км 8/8 500 м
[Cu med, cong]
+31.0 +22.1 59 +40 +40 очень
душно
1006.3 960.8
21 18.11 Ю 7 5000 м осадки на расстоянии 9/9 500 м
[Cb cap]
+28.0 +22.4 72 +37 +37 очень
душно
1004.6 958.0 +32.2
12 19.11 Ю 3 30 км {дождь} 10/5 500 м
[Sc As op]
+24.2 +21.8 86 +31 +32 очень
душно
1008.5 962.8 +20.1 5
15 19.11 Ю 3 30 км 10/6 500 м
[Sc As op]
+24.7 +22.0 85 +32 +33 очень
душно
1010.8 964.2
18 19.11 Ю 3 30 км 10/5 500 м
[Cu Sc As op]
+26.3 +21.6 75 +34 +35 очень
душно
1008.4 961.6
21 19.11 Ю 3 30 км 10/5 500 м
[Sc As op]
+25.8 +22.4 82 +34 +34 очень
душно
1004.6 959.0 +27.3

 

Местоположение метеостанции San Ignacio De Velasco (Боливия): широта -16.38 долгота -60.96 высота над уровнем моря 413 м.

В архиве по умолчанию представлена погода в San Ignacio De Velasco за последнюю неделю. Архивные данные за месяц целиком и за предыдущие месяцы, начиная с января 2011 года, Вы можете получить, выбрав интересующий диапазон дат из раскрывающегося списка и нажав кнопку "Ввод!".

Внимание! Время в таблицах - всемирное. Для получения местного времени необходимо прибавить поправку, которая в San Ignacio De Velasco равна -4 ч.

Смотрите также архив погоды в соседних городах и на ближайших метеорологических станциях:

Погода в Concepcion (Боливия) (115 км)
Погода в San Jose De Chiquitos (Боливия) (160 км)
Погода в San Javier (Боливия) (161 км)
Погода в Vila Bela da S Trind (Бразилия) (187 км)
Погода в Pontes E Lacerda (Бразилия) (213 км)
Погода в Ascencion De Guaray (Боливия) (241 км)
Погода в Robore (Боливия) (250 км)
Погода в Viru-Viru (Боливия) (269 км)
Погода в San Matias (Боливия) (275 км)
Погода в Santa Cruz (Боливия) (284 км)

Пояснения к столбцам:

Ветер - указаны скорость ветра в м/с - средняя за 10 мин, порывы в срок и между сроками (в фигурных скобках) и направление, откуда дует ветер: С - северный, СВ - северо-восточный, В - восточный, ЮВ - юго-восточный, Ю - южный, ЮЗ - юго-западный, З - западный, СЗ - северо-западный.
Видимость - горизонтальная дальность видимости в метрах или километрах. При видимости от 1 до 10 км при отсутствии осадков обычно наблюдается дымка, при ухудшении видимости до 1 км и менее - туман. В сухую погоду видимость может ухудшаться дымом, пылью или мглою.
Явления - указаны атмосферные явления, наблюдавшиеся в срок или в последний час перед сроком; фигурными скобками обозначены явления, наблюдавшиеся между сроками (за 1-3 часа до срока); квадратными скобками обозначены град или гололедные отложения с указанием их диаметра в мм.
Облачность - указаны через наклонную черту общая и нижняя облачность в баллах и высота нижней границы облаков в метрах; квадратными скобками обозначены формы облаков: Ci - перистые, Cs - перисто-слоистые, Cc - перисто-кучевые, Ac - высококучевые, As - высокослоистые, Sc - слоисто-кучевые, Ns - слоисто-дождевые, Cu - кучевые, Cb - кучево-дождевые. Подробнее классификацию облаков см. в Атласе облаков (PDF).
T - Температура воздуха - температура, измеренная на высоте 2 м над землей.
Td - Температура точки росы - температура, при понижении до которой содержащийся в воздухе водяной пар достигнет насыщения.
f - Относительная влажность воздуха - влажноcть воздуха, измеренная на высоте 2 м над землей.
Te - Эффективная температура - температура, которую ощущает одетый по сезону человек в тени. Характеристика душности погоды. При расчете учитывается влияние влажности воздуха и скорости ветра на теплоощущения человека.
Tes - Эффективная температура на солнце - температура, которую ощущает человек, с поправкой на солнечный нагрев. Характеристика знойности погоды. Зависит от высоты солнца над горизонтом, облачности и скорости ветра. Ночью, в пасмурную погоду, а также при ветре 12 м/с и более поправка равна нулю.
P - Атмосферное давление - приведенное к уровню моря атмосферное давление.
Po - Атмосферное давление - измеренное на уровне метеостанции атмосферное давление.
Tmin - Минимальная температура - минимум температуры воздуха на высоте 2 м над землей.
Tmax - Максимальная температура - максимум температуры воздуха на высоте 2 м над землей.
R - Количество осадков - Количество выпавших осадков за период времени, мм. При наведении курсора мыши на число - период времени, за который выпало указанное количество осадков.
R24 - Количество осадков - Количество выпавших осадков за 24 часа, мм.
S - Снежный покров - Высота снежного покрова, см. При наведении курсора мыши на число - состояние снежного покрова и степень покрытия местности в баллах.